Location: Untermarchtal
(48.2403°N, 9.6117°E)
Time: 05:15:25
(UTC+01:00)

ISS - Pass Details

Date: 16 November 2017
Orbit: 402 x 407 km, 51.6° (Epoch: 21 November)

Event Time Altitude Azimuth Distance (km) Brightness Sun altitude
Exits shadow 05:38:09 33° 203° (SSW) 700 -2.8 -18.5°
Drops below altitude 10° 05:40:51 10° 148° (SSE) 1,449 -0.5 -18.1°
Sets 05:43:01 0° 139° (SE) 2,305 0.8 -17.7°
